Voltar ao catálogo

STARLINK-5585

AtivoComunicaçõesVLEO
NORAD 57333·PAYLOAD·🇺🇸 United States

Lançado Jul 16, 2023 de Cape Canaveral Space Force Station

Loading…

Próximas Passagens (próximas 24 horas)

TLE

AtualizadoSource: CelesTrak SupGP

Época: Sep 15, 2026, 01:50 UTC

1 57333C 23099F   26258.07687500 -.00004323  00000+0 -15660-3 0  2582
2 57333  42.9993 262.8180 0001417 262.3816   5.4095 15.27577574    11

Acompanhe STARLINK-5585 em tempo real com AllMySat

Download on the App Store